Regional Weather Roundup
Issued by NWS

Home | Current Version | Previous Version | Text Only | Print | Product List | Glossary Off
Versions: 1 2 3 4 5 6 7 8 9 10 11 12 13 14 15 16 17 18 19 20 21 22 23 24 25 26 27 28

000
ASUS45 KTFX 261510
RWRMT
MONTANA REGIONAL WEATHER ROUNDUP
NATIONAL WEATHER SERVICE GREAT FALLS MT
900 AM MDT SUN MAR 26 2017

NOTE: "FAIR" INDICATES FEW OR NO CLOUDS BELOW 12000 FEET WITH NO
SIGNIFICANT WEATHER AND/OR OBSTRUCTIONS TO VISIBILITY.

MTZ001>007-043-261600-
WEST OF THE DIVIDE

CITY           SKY/WX    TMP DP  RH WIND       PRES   REMARKS
KALISPELL      SUNNY     34  30  85 CALM      29.97F
MISSOULA       CLOUDY    31  28  89 CALM      30.01S
BUTTE          SUNNY     28  24  85 CALM      29.97F
MULLAN PASS    PTSUNNY   24  23  96 SE6       29.88F WCI  17
ANACONDA         N/A     34  27  75 S3        29.97F
DEER LODGE       N/A     32  27  80 E3        30.00F
EUREKA           N/A     30  27  86 CALM      29.97S
HAMILTON         N/A     36  28  75 SE3       29.99S
PLAINS           N/A     32  26  78 CALM      30.00
RONAN            N/A     34  28  79 CALM      30.01S
$$

MTZ008-052>055-261600-
SOUTHWEST MONTANA

CITY           SKY/WX    TMP DP  RH WIND       PRES   REMARKS
BOZEMAN        PTSUNNY   33  29  85 CALM      29.99R
DILLON         SUNNY     33  22  63 SW9       29.97S WCI  25
W YELLOWSTONE  PTSUNNY   30  23  74 S6        30.00S WCI  24
ENNIS          CLOUDY    36  30  80 S7G14     30.03R WCI  30
THREE FORKS      N/A     34  33  96 CALM      29.98S
TWIN BRIDGES     N/A     32  23  69 SE5       29.97S
$$

MTZ009-010-012-014-046-048-049-054-261600-
EAST SLOPES AND CENTRAL MONTANA

CITY           SKY/WX    TMP DP  RH WIND       PRES   REMARKS
CUT BANK       PTSUNNY   28  20  71 S3        29.92R
GREAT FALLS    SUNNY     40  22  48 SW9       29.94R
MALMSTROM AFB  SUNNY     40  25  54 SW13      29.94S
HELENA         CLOUDY    40  30  67 NE5       29.97F
AUGUSTA        PTSUNNY   37  14  40 W12       29.91F WCI  29
BOWMANS CRNR     N/A     38  20  49 SW12      29.91F WCI  30
CHOTEAU          N/A     36  25  64 E3        29.94S
CONRAD           N/A     39  35  85 SW2       29.95S
FAIRFIELD        N/A     38  18  44 CALM      29.92S
POWER            N/A     36  22  55 W5        29.93R
RAYNESFORD       N/A     34  23  65 SW3       29.95R
$$

MTZ011-013-016-021-045-047-050-051-261600-
NORTH CENTRAL MONTANA

CITY           SKY/WX    TMP DP  RH WIND       PRES   REMARKS
HAVRE          CLOUDY    36  28  73 W5        29.94S
LEWISTOWN      CLOUDY    39  25  57 CALM      29.94S
N BAR RANCH    PTSUNNY   39  23  52 CALM      29.96S
CHINOOK          N/A     39  28  65 W6        29.94S
DENTON         PTSUNNY   33  25  70 CALM      29.92R
GEYSER         PTSUNNY   38  24  56 E6        29.93R
GRASS RANGE      N/A     42  26  54 SW7       29.91S
STANFORD         N/A     39  24  54 NW5       29.94R
WINIFRED         N/A     40  25  55 W7        29.94R
$$

MTZ017>020-022>027-061-062-261600-
NORTHEAST MONTANA

CITY           SKY/WX    TMP DP  RH WIND       PRES   REMARKS
GLASGOW        CLOUDY    35  27  72 NW7       29.93R WCI  29
JORDAN           N/A     42  34  73 W6        29.94R
SIDNEY         MOSUNNY   46  35  65 S9        29.91R
WOLF POINT     MOSUNNY   39  32  76 W9        29.92R
MALTA          SUNNY     36  28  75 W5        29.95R
PLENTYWOOD       N/A     43  36  75 CALM      29.89R
POPLAR           N/A     39  30  70 SW5       29.91S
SCOBEY           N/A     36  25  65 CALM      29.88
$$

MTZ028>42-056>058-261600-
SOUTHCENTRAL AND SOUTHEAST MONTANA

CITY           SKY/WX    TMP DP  RH WIND       PRES   REMARKS
BAKER          CLOUDY    43  39  86 W6        29.94S
BILLINGS       MOSUNNY   43  33  68 NE3       29.97R
LIVINGSTON     CLOUDY    35  30  82 NW3       29.97R
MILES CITY     SUNNY     46  38  73 W6        29.94S
BIG TIMBER     MOSUNNY   36  30  80 W7        29.99S WCI  30
EKALAKA          N/A     40  37  89 NW2       29.92S
FORSYTH          N/A     45  37  76 W6        29.95R
HARLOWTON        N/A     36  27  69 W9        29.96S WCI  29
LAUREL           N/A     39  28  65 CALM      29.95F
ROUNDUP          N/A     40  29  65 S8        29.88R
$$

REGIONAL REPORTS...DAKOTAS

CITY           SKY/WX    TMP DP  RH WIND       PRES   REMARKS
WILLISTON      PTSUNNY   46  34  62 S6        29.90S
MINOT          CLOUDY    46  36  68 CALM      29.90S
DICKINSON      CLOUDY    46  36  68 W9        29.91R
BEACH            N/A    N/A N/A N/A MISG        N/A
TIOGA            N/A     39  39 100 CALM      29.91S
WATFORD CITY     N/A     43  34  70 CALM      29.91S
BISMARCK       CLOUDY    41  36  82 S5        29.91F
GRAND FORKS    CLOUDY    36  34  92 SW5       29.96S
FARGO          CLOUDY    36  36 100 SE6       29.97F FOG     WCI  31
BUFFALO SD       N/A     46  39  76 E5        29.86R
RAPID CITY     CLOUDY    40  37  89 N13       29.89R
$$

REGIONAL REPORTS...WYOMING/IDAHO/WASHINGTON

CITY           SKY/WX    TMP DP  RH WIND       PRES   REMARKS
GILLETTE       CLOUDY    41  37  86 N10       29.94S
SHERIDAN       CLOUDY    39  36  89 SE5       29.95S
BUFFALO WY     CLOUDY    42  36  79 N6        29.96R
CODY           SUNNY     40  26  57 CALM      29.97R
YELLOWSTONE LA   N/A     24  22  91 CALM      30.01R
IDAHO FALLS    SUNNY     34  29  82 S6        30.03R WCI  29
SALMON         SUNNY     30  23  74 CALM      30.00F
BOISE          SUNNY     44  27  51 SE14      29.94S
SPOKANE        MOSUNNY   35  31  85 NE5       29.91F
$$

REGIONAL REPORTS...ALBERTA

CITY           SKY/WX    TMP DP  RH WIND       PRES   REMARKS
EDMONTON       SUNNY     32  28  86 W5        29.84S
CALGARY        PTSUNNY   28  16  59 CALM      29.85S
LETHBRIDGE     PTSUNNY   34  23  64 SW9       29.89R WCI  26
MEDICINE HAT   PTSUNNY   37  27  65 SW12      29.87S WCI  30
WATERTON GATE    N/A     37  18  44 SW14G21     N/A  WCI  29
CARDSTON         N/A     34  18  51 SW3         N/A
MILK RIVER       N/A     34  25  69 W5          N/A
$$

REGIONAL REPORTS...SASKATCHEWAN

CITY           SKY/WX    TMP DP  RH WIND       PRES   REMARKS
SWIFT CURRENT  SUNNY     37  25  60 W16       29.84R WCI  28
REGINA         PTSUNNY   39  34  81 SE7       29.87S
SASKATOON      CLOUDY    32  30  93 E14       29.89R WCI  22
ROCKGLEN         N/A     45  21  39 NW5         N/A
ASSINIBOIA       N/A     30  28  93 S3          N/A
$$




USA.gov is the U.S. government's official web portal to all federal, state and local government web resources and services.